TimeCEST,TemperatureF,Dew PointF,Humidity,Sea Level PressureIn,VisibilityMPH,Wind Direction,Wind SpeedMPH,Gust SpeedMPH,PrecipitationIn,Events,Conditions,WindDirDegrees,DateUTC
12:00 AM,55.4,44.6,67,30.27,-9999.0,North,11.5,-,N/A,,Clear,10,2013-06-23 22:00:00
12:30 AM,55.4,46.4,72,30.27,2.8,North,9.2,-,N/A,,Mist,360,2013-06-23 22:30:00
1:00 AM,53.6,46.4,77,30.24,3.7,NNE,6.9,-,N/A,,Unknown,20,2013-06-23 23:00:00
2:00 AM,51.8,46.4,82,30.24,3.7,Calm,Calm,-,N/A,,Unknown,0,2013-06-24 00:00:00
2:30 AM,51.8,46.4,82,30.24,3.7,Variable,1.2,-,N/A,,Unknown,0,2013-06-24 00:30:00
3:00 AM,51.8,46.4,82,30.24,3.7,Calm,Calm,-,N/A,,Unknown,0,2013-06-24 01:00:00
3:30 AM,51.8,46.4,82,30.24,3.7,Variable,2.3,-,N/A,,Unknown,0,2013-06-24 01:30:00
4:00 AM,51.8,46.4,82,30.24,3.7,Calm,Calm,-,N/A,,Unknown,0,2013-06-24 02:00:00
4:30 AM,51.8,46.4,82,30.24,3.7,Calm,Calm,-,N/A,,Unknown,0,2013-06-24 02:30:00
5:00 AM,50.0,44.6,82,30.21,3.7,Variable,1.2,-,N/A,,Unknown,0,2013-06-24 03:00:00
5:30 AM,50.0,44.6,82,30.21,3.7,Variable,1.2,-,N/A,,Unknown,0,2013-06-24 03:30:00
6:30 AM,50.0,44.6,82,30.21,3.7,Calm,Calm,-,N/A,,Unknown,0,2013-06-24 04:30:00
7:00 AM,50.0,44.6,82,30.21,3.7,Calm,Calm,-,N/A,,Unknown,0,2013-06-24 05:00:00
7:30 AM,50.0,44.6,82,30.21,3.7,Calm,Calm,-,N/A,,Unknown,0,2013-06-24 05:30:00
8:00 AM,54,46,68,30.24,12,South,3.5,,,,Clear,170,2013-06-24 06:00:00
8:00 AM,50.0,46.4,87,30.21,-9999.0,Variable,2.3,-,N/A,,Clear,0,2013-06-24 06:00:00
8:30 AM,50.0,44.6,82,30.21,3.7,Calm,Calm,-,N/A,,Unknown,0,2013-06-24 06:30:00
9:00 AM,51.8,48.2,88,30.21,-9999.0,SSW,5.8,-,N/A,,Clear,200,2013-06-24 07:00:00
9:30 AM,53.6,46.4,77,30.21,-9999.0,SSW,3.5,-,N/A,,Clear,200,2013-06-24 07:30:00
10:00 AM,55.4,48.2,77,30.21,-9999.0,Variable,4.6,-,N/A,,Clear,0,2013-06-24 08:00:00
10:30 AM,57.2,48.2,72,30.21,-9999.0,SSW,5.8,-,N/A,,Clear,200,2013-06-24 08:30:00
11:00 AM,59.0,50.0,72,30.24,-9999.0,South,5.8,-,N/A,,Clear,190,2013-06-24 09:00:00
11:30 AM,62.6,50.0,63,30.24,-9999.0,South,3.5,-,N/A,,Clear,190,2013-06-24 09:30:00
12:00 PM,64.4,50.0,59,30.24,-9999.0,Variable,2.3,-,N/A,,Clear,0,2013-06-24 10:00:00
12:30 PM,71.6,55.4,57,30.24,-9999.0,Variable,2.3,-,N/A,,Clear,0,2013-06-24 10:30:00
1:00 PM,73.4,53.6,50,30.24,-9999.0,Variable,1.2,-,N/A,,Clear,0,2013-06-24 11:00:00
1:30 PM,71.6,53.6,53,30.24,-9999.0,Variable,1.2,-,N/A,,Clear,0,2013-06-24 11:30:00
2:00 PM,79,55,33,30.19,16,NE,4.6,,,,,50,2013-06-24 12:00:00
2:00 PM,75.2,53.6,47,30.21,-9999.0,ENE,3.5,-,N/A,,Clear,60,2013-06-24 12:00:00
2:30 PM,77.0,57.2,50,30.21,-9999.0,NE,4.6,-,N/A,,Clear,50,2013-06-24 12:30:00
3:00 PM,77.0,53.6,44,30.21,-9999.0,NNE,5.8,-,N/A,,Clear,20,2013-06-24 13:00:00
3:30 PM,78.8,53.6,42,30.21,-9999.0,North,8.1,-,N/A,,Clear,10,2013-06-24 13:30:00
4:00 PM,78.8,48.2,34,30.18,-9999.0,NNE,8.1,-,N/A,,Clear,20,2013-06-24 14:00:00
4:30 PM,78.8,48.2,34,30.18,-9999.0,NNE,8.1,-,N/A,,Clear,20,2013-06-24 14:30:00
5:00 PM,80.6,51.8,37,30.18,-9999.0,NNE,5.8,-,N/A,,Clear,20,2013-06-24 15:00:00
5:30 PM,80.6,50.0,34,30.18,-9999.0,North,9.2,-,N/A,,Clear,10,2013-06-24 15:30:00
6:00 PM,80.6,50.0,34,30.18,-9999.0,North,12.7,-,N/A,,Clear,360,2013-06-24 16:00:00
6:30 PM,80.6,50.0,34,30.15,-9999.0,North,15.0,-,N/A,,Clear,350,2013-06-24 16:30:00
7:00 PM,78.8,48.2,34,30.15,-9999.0,North,15.0,-,N/A,,Clear,350,2013-06-24 17:00:00
7:30 PM,77.0,48.2,36,30.15,-9999.0,North,13.8,-,N/A,,Clear,350,2013-06-24 17:30:00
8:00 PM,80,49,24,30.13,19,North,12.7,,,,,350,2013-06-24 18:00:00
8:00 PM,77.0,48.2,36,30.15,-9999.0,North,13.8,-,N/A,,Clear,350,2013-06-24 18:00:00
8:30 PM,75.2,48.2,38,30.15,-9999.0,North,15.0,-,N/A,,Clear,350,2013-06-24 18:30:00
9:00 PM,75.2,50.0,41,30.15,-9999.0,North,16.1,-,N/A,,Clear,360,2013-06-24 19:00:00
9:30 PM,73.4,51.8,47,30.15,-9999.0,North,15.0,-,N/A,,Clear,350,2013-06-24 19:30:00
10:00 PM,69.8,51.8,53,30.18,-9999.0,North,10.4,-,N/A,,Clear,360,2013-06-24 20:00:00
10:30 PM,68.0,51.8,56,30.18,-9999.0,NNE,6.9,-,N/A,,Clear,30,2013-06-24 20:30:00
11:00 PM,66.2,51.8,60,30.18,-9999.0,North,8.1,-,N/A,,Clear,10,2013-06-24 21:00:00
11:30 PM,64.4,50.0,59,30.18,-9999.0,NNE,9.2,-,N/A,,Clear,20,2013-06-24 21:30:00